+ View the NASA Portal
+ Center for Near-Earth Object Studies
IMPORTANT:
The SSD Announcement email list is now available. Major changes are coming in the near future, including possible hostname and/or URL changes. To be notified of such changes, subscribe to this email list.
Please visit
this page
for more details.
Don't show this message again
JPL Small-Body Database Browser
Search:
[
help
]
351782 (2006 HX)
Classification:
Main-belt Asteroid
SPK-ID:
2351782
[
Ephemeris
|
Orbit Diagram
|
Orbital Elements
|
Mission Design
|
Physical Parameters
|
Discovery Circumstances
]
[ show orbit diagram ]
Orbital Elements at Epoch 2458600.5 (2019-Apr-27.0) TDB
Reference:
JPL 12
(heliocentric ecliptic J2000)
Element
Value
Uncertainty (1-sigma)
Units
e
.1913404491201839
4.6564e-08
a
2.387177654234193
1.7222e-08
au
q
1.930414009743356
1.1153e-07
au
i
3.991633009246328
5.5489e-06
deg
node
119.8130572547426
9.4232e-05
deg
peri
122.2947984351917
9.5801e-05
deg
M
170.460109839221
1.8779e-05
deg
t
p
2457962.609989887205
(2017-Jul-28.10998989)
6.8338e-05
TDB
period
1347.179723497798
3.69
1.4578e-05
3.991e-08
d
yr
n
.2672249245745038
2.8917e-09
deg/d
Q
2.843941298725031
2.0517e-08
au
Orbit Determination Parameters
# obs. used (total)
194
data-arc span
6097 days (16.69 yr)
first obs. used
2002-02-07
last obs. used
2018-10-18
planetary ephem.
DE431
SB-pert. ephem.
SB431-N16
condition code
0
norm. resid. RMS
.65187
source
ORB
producer
Otto Matic
solution date
2018-Oct-31 04:55:53
Additional Information
Earth MOID
= .920964 au
Jupiter MOID
= 2.17909 au
T_jup
= 3.506
[ show covariance matrix ]
[
Ephemeris
|
Orbit Diagram
|
Orbital Elements
|
Mission Design
|
Physical Parameters
|
Discovery Circumstances
]
Physical Parameter Table
Parameter
Symbol
Value
Units
Sigma
Reference
Notes
absolute magnitude
H
17.4
n/a
MPO455546
351782 (2006 HX)
Discovered 2006-Apr-18 by Spacewatch at Kitt Peak
Reference:
20130127/Numbers.arc
Last Updated:
2013-01-31
Alternate Designations
2006 HX
= 2002 EZ127
[
Ephemeris
|
Orbit Diagram
|
Orbital Elements
|
Mission Design
|
Physical Parameters
|
Discovery Circumstances
]
2019-Dec-14 00:05 UT
(server date/time)
Site Manager:
Ryan S. Park
Webmaster
:
Alan B. Chamberlin